Navig8 Saiph — V7SU2 — position and weather

sailwx.info

Track history (hours):
 
Tides and Currents Weather Stations Pressure Air Temp Water Temp Dewpoint Dewpoint Depression Visibility Wind Speed Wind Dir Waves Ship Positions

Navig8 Saiph

Last reported at 2017-Oct-18 13:57 UTC. Time now 2017-Oct-19 01:35 UTC.
Position N 36°44' W 076°15'.

Length 153 m; draft 8.9 m.

Type: Ship (hazmat cat B). MMSI: 538006894.

Date/timePositionNaut miles runAvg speedWind from/ knotsBaromVisibWave heightAir tempDewpointWater temp
2017-Oct-18 13:57N 36°44' W 076°15'3 4.4
2017-Oct-18 13:23N 36°45' W 076°18'2 5.2
2017-Oct-18 12:59N 36°47' W 076°18'3 0.1
2017-Oct-16 22:51N 36°51' W 076°18'0 0.0
2017-Oct-16 22:27N 36°51' W 076°18'0 0.0
2017-Oct-16 20:03N 36°51' W 076°18'0 0.3
2017-Oct-16 20:00N 36°51' W 076°18'121 5.1
2017-Oct-15 20:05N 38°52' W 076°25'213.3
2017-Oct-15 19:57N 38°54' W 076°25'613.4
2017-Oct-15 19:30N 38°59' W 076°23'1412.0
2017-Oct-15 18:18N 39°12' W 076°31'311.6
2017-Oct-15 18:00N 39°15' W 076°34'3 0.3
2017-Oct-15 07:25N 39°17' W 076°37'0 0.0
2017-Oct-15 06:58N 39°17' W 076°37'0 0.0
2017-Oct-15 06:28N 39°17' W 076°37'0 0.0
2017-Oct-15 05:58N 39°17' W 076°37'0 0.0
2017-Oct-15 05:28N 39°17' W 076°37'0 0.1
2017-Oct-15 04:58N 39°17' W 076°37'0 0.1
2017-Oct-15 04:28N 39°17' W 076°37'0 0.0
2017-Oct-15 03:58N 39°17' W 076°37'0 0.0
2017-Oct-15 03:28N 39°17' W 076°37'0 0.0
2017-Oct-15 02:58N 39°17' W 076°37'0 0.0
2017-Oct-15 02:28N 39°17' W 076°37'0 0.0
2017-Oct-15 01:58N 39°17' W 076°37'0 0.0
2017-Oct-15 01:28N 39°17' W 076°37'0 0.0
2017-Oct-15 00:58N 39°17' W 076°37'0 0.0
2017-Oct-15 00:28N 39°17' W 076°37'0 0.0
2017-Oct-14 23:58N 39°17' W 076°37'0 0.0
2017-Oct-14 23:28N 39°17' W 076°37'0 0.0
2017-Oct-14 22:58N 39°17' W 076°37'0 0.0
2017-Oct-14 22:25N 39°17' W 076°37'0 0.0
2017-Oct-14 21:58N 39°17' W 076°37'0 0.0
2017-Oct-14 21:28N 39°17' W 076°37'0 0.0
2017-Oct-14 20:58N 39°17' W 076°37'0 0.0
2017-Oct-14 20:28N 39°17' W 076°37'0 0.0
2017-Oct-14 19:58N 39°17' W 076°37'0 0.0
2017-Oct-14 19:28N 39°17' W 076°37'0 0.0
2017-Oct-14 18:58N 39°17' W 076°37'0 0.0
2017-Oct-14 18:28N 39°17' W 076°37'0 0.0
2017-Oct-14 17:58N 39°17' W 076°37'0 0.0
2017-Oct-14 17:25N 39°17' W 076°37'0 0.0
2017-Oct-14 16:58N 39°17' W 076°37'0 0.0
2017-Oct-14 16:28N 39°17' W 076°37'0 0.0
2017-Oct-14 15:58N 39°17' W 076°37'0 0.0
2017-Oct-14 15:28N 39°17' W 076°37'0 0.0
2017-Oct-14 14:58N 39°17' W 076°37'0 0.0
2017-Oct-14 14:28N 39°17' W 076°37'0 0.0
2017-Oct-14 13:58N 39°17' W 076°37'0 0.0
2017-Oct-14 13:28N 39°17' W 076°37'0 0.0
2017-Oct-14 12:58N 39°17' W 076°37'0 0.0
2017-Oct-14 12:28N 39°17' W 076°37'0 0.0
2017-Oct-14 11:58N 39°17' W 076°37'0 0.0
2017-Oct-14 11:28N 39°17' W 076°37'0 0.0
2017-Oct-14 10:58N 39°17' W 076°37'0 0.0
2017-Oct-14 10:28N 39°17' W 076°37'0 0.0
2017-Oct-14 09:58N 39°17' W 076°37'0 0.0
2017-Oct-14 09:28N 39°17' W 076°37'0 0.0
2017-Oct-14 08:58N 39°17' W 076°37'0 0.0
2017-Oct-14 08:28N 39°17' W 076°37'0 0.0
2017-Oct-14 07:58N 39°17' W 076°37'0 0.0
2017-Oct-14 07:28N 39°17' W 076°37'0 0.0
2017-Oct-14 06:58N 39°17' W 076°37'0 0.0
2017-Oct-14 06:28N 39°17' W 076°37'0 0.0
2017-Oct-14 05:58N 39°17' W 076°37'0 0.0
2017-Oct-14 05:28N 39°17' W 076°37'0 0.0
2017-Oct-14 04:58N 39°17' W 076°37'0 0.0
2017-Oct-14 04:28N 39°17' W 076°37'0 0.0
2017-Oct-14 03:58N 39°17' W 076°37'0 0.0
2017-Oct-14 03:28N 39°17' W 076°37'0 0.0
2017-Oct-14 02:58N 39°17' W 076°37'0 0.0
2017-Oct-14 02:28N 39°17' W 076°37'0 0.0
2017-Oct-14 01:58N 39°17' W 076°37'0 0.0
2017-Oct-13 23:49N 39°17' W 076°37'0 0.0
2017-Oct-13 23:19N 39°17' W 076°37'0 0.0
2017-Oct-13 22:58N 39°17' W 076°37'0 0.0
2017-Oct-13 22:28N 39°17' W 076°37'0 0.0
2017-Oct-13 21:58N 39°17' W 076°37'0 0.0
2017-Oct-13 21:28N 39°17' W 076°37'0 0.0
2017-Oct-13 20:58N 39°17' W 076°37'0 0.0
2017-Oct-13 20:28N 39°17' W 076°37'0 0.0
2017-Oct-13 19:58N 39°17' W 076°37'0 0.0
2017-Oct-13 19:28N 39°17' W 076°37'0 0.0
2017-Oct-13 18:58N 39°17' W 076°37'0 0.0
2017-Oct-13 18:28N 39°17' W 076°37'0 0.0
2017-Oct-13 17:58N 39°17' W 076°37'0 0.0
2017-Oct-13 17:28N 39°17' W 076°37'0 0.0
2017-Oct-13 16:58N 39°17' W 076°37'0 0.0
2017-Oct-13 16:28N 39°17' W 076°37'0 0.0
2017-Oct-13 15:58N 39°17' W 076°37'0 0.0
2017-Oct-13 15:25N 39°17' W 076°37'0 0.0
2017-Oct-13 14:58N 39°17' W 076°37'0 0.0
2017-Oct-13 14:28N 39°17' W 076°37'0 0.0
2017-Oct-13 13:58N 39°17' W 076°37'0 0.0
2017-Oct-13 13:28N 39°17' W 076°37'0 0.0
2017-Oct-13 12:58N 39°17' W 076°37'0 0.0
2017-Oct-13 12:28N 39°17' W 076°37'0 0.0
2017-Oct-13 11:58N 39°17' W 076°37'0 0.0
2017-Oct-13 11:28N 39°17' W 076°37'0 0.0
2017-Oct-13 10:58N 39°17' W 076°37'0 0.0
2017-Oct-13 10:28N 39°17' W 076°37'0 0.0
2017-Oct-13 09:58N 39°17' W 076°37'43559695.7
2017-Oct-13 09:31N 35°57' E 014°56'012.7
2017-Oct-13 09:30N 35°57' E 014°55'4355136321.7
2017-Oct-13 09:28N 39°17' W 076°37'43499024.9
2017-Oct-13 08:59N 35°58' E 014°49'4349240894.5
2017-Oct-13 08:58N 39°17' W 076°37'43498825.8
2017-Oct-13 08:28N 35°58' E 014°49'4349602193.9
2017-Oct-13 08:28N 39°17' W 076°37'43498825.9
2017-Oct-13 07:58N 35°58' E 014°49'4349602194.6
2017-Oct-13 07:58N 39°17' W 076°37'43498830.8
2017-Oct-13 07:28N 35°58' E 014°49'4349579891.5
2017-Oct-13 07:28N 39°17' W 076°37'43498825.9
2017-Oct-13 06:58N 35°58' E 014°49'4349602195.7
2017-Oct-13 06:58N 39°17' W 076°37'43498826.0
2017-Oct-13 06:28N 35°58' E 014°49'4349579898.8
2017-Oct-13 06:28N 39°17' W 076°37'43498831.0
2017-Oct-13 05:58N 35°58' E 014°49'4349602204.7
2017-Oct-13 05:58N 39°17' W 076°37'43498831.0
2017-Oct-13 05:28N 35°58' E 014°49'4349559189.1
2017-Oct-13 05:28N 39°17' W 076°37'43498826.0
2017-Oct-13 04:58N 35°58' E 014°49'4349626295.4
2017-Oct-13 04:58N 39°17' W 076°37'43498826.0
2017-Oct-13 04:28N 35°58' E 014°49'4349602206.2
2017-Oct-13 04:28N 39°17' W 076°37'43498826.0
2017-Oct-13 03:58N 35°58' E 014°49'4349579903.1
2017-Oct-13 03:58N 39°17' W 076°37'43497340.5
2017-Oct-13 03:22N 35°58' E 014°49'0 0.0
2017-Oct-13 02:40N 35°58' E 014°49'0 0.1
2017-Oct-13 02:28N 35°58' E 014°49'0 0.0
2017-Oct-13 01:58N 35°58' E 014°49'0 0.0
2017-Oct-13 01:28N 35°58' E 014°49'434914131.2
2017-Oct-13 01:10N 39°17' W 076°37'434922658.8
2017-Oct-13 00:58N 35°58' E 014°49'4349539906.1
2017-Oct-13 00:58N 39°17' W 076°37'43498836.0
2017-Oct-13 00:28N 35°58' E 014°49'434975275.6
2017-Oct-13 00:25N 39°17' W 076°37'0 0.0
2017-Oct-12 23:58N 39°17' W 076°37'434930580.8
2017-Oct-12 23:49N 35°58' E 014°49'434912156.3
2017-Oct-12 23:28N 39°17' W 076°37'0 0.0
2017-Oct-12 22:58N 39°17' W 076°37'43499822.8
2017-Oct-12 22:31N 35°58' E 014°49'0 0.1
2017-Oct-12 22:28N 35°58' E 014°49'4349559194.4
2017-Oct-12 22:28N 39°17' W 076°37'43498831.1
2017-Oct-12 21:58N 35°58' E 014°49'4349579909.6
2017-Oct-12 21:58N 39°17' W 076°37'43498836.1
2017-Oct-12 21:28N 35°58' E 014°49'4349559198.8
2017-Oct-12 21:28N 39°17' W 076°37'43498831.1
2017-Oct-12 20:58N 35°58' E 014°49'4349579908.6
2017-Oct-12 20:58N 39°17' W 076°37'0 0.0
2017-Oct-12 20:28N 39°17' W 076°37'4349102337.0
2017-Oct-12 20:25N 35°58' E 014°49'0 0.0
2017-Oct-12 19:58N 35°58' E 014°49'4349579909.9
2017-Oct-12 19:58N 39°17' W 076°37'0 0.0
2017-Oct-12 19:28N 39°17' W 076°37'434947161.3
2017-Oct-12 19:22N 35°58' E 014°49'0 0.0
2017-Oct-12 18:58N 35°58' E 014°49'4349559198.8
2017-Oct-12 18:58N 39°17' W 076°37'0 0.0
2017-Oct-12 18:28N 39°17' W 076°37'434947161.4
2017-Oct-12 18:22N 35°58' E 014°49'0 0.0
2017-Oct-12 17:58N 35°58' E 014°49'4349521920.0
2017-Oct-12 17:58N 39°17' W 076°37'0 0.0
2017-Oct-12 17:28N 39°17' W 076°37'434947161.3
2017-Oct-12 17:22N 35°58' E 014°49'434910665.9
2017-Oct-12 16:58N 39°17' W 076°37'434922659.3
2017-Oct-12 16:46N 35°58' E 014°49'0 0.0
2017-Oct-12 16:28N 35°58' E 014°49'4349539915.3
2017-Oct-12 16:28N 39°17' W 076°37'0 0.0
2017-Oct-12 15:58N 39°17' W 076°37'4349103009.9
2017-Oct-12 15:55N 35°58' E 014°49'0 0.0
2017-Oct-12 15:28N 35°58' E 014°49'4349539915.1
2017-Oct-12 15:28N 39°17' W 076°37'0 0.0
2017-Oct-12 14:58N 39°17' W 076°37'4349102336.3
2017-Oct-12 14:55N 35°58' E 014°49'0 0.3
2017-Oct-12 14:29N 35°58' E 014°49'4349244640.2
2017-Oct-12 14:28N 39°17' W 076°37'0 0.0
2017-Oct-12 13:58N 39°17' W 076°37'434432919.8
2017-Oct-12 13:50N 36°01' E 014°44'434411801.5
2017-Oct-12 13:28N 39°17' W 076°37'43319975.9
2017-Oct-12 13:02N 36°06' E 014°32'013.7
2017-Oct-12 13:01N 36°06' E 014°31'433193923.0
2017-Oct-12 12:58N 39°17' W 076°37'43239170.5
2017-Oct-12 12:29N 36°10' E 014°24'4323152571.3
2017-Oct-12 12:28N 39°17' W 076°37'43159127.2
2017-Oct-12 11:59N 36°13' E 014°16'431555679.4
2017-Oct-12 11:55N 39°17' W 076°37'430810673.2
2017-Oct-12 11:31N 36°16' E 014°09'430893422.6
2017-Oct-12 11:28N 39°17' W 076°37'43009219.6
2017-Oct-12 11:00N 36°20' E 014°01'4300126882.9
2017-Oct-12 10:58N 39°17' W 076°37'42929246.8
2017-Oct-12 10:30N 36°22' E 013°53'4292119778.8
2017-Oct-12 10:28N 39°17' W 076°37'42849364.6
2017-Oct-12 10:00N 36°25' E 013°45'4284100807.4
2017-Oct-12 09:58N 39°17' W 076°37'0 0.0
2017-Oct-12 09:28N 39°17' W 076°37'0 0.0
2017-Oct-12 08:58N 39°17' W 076°37'0 0.0
2017-Oct-12 08:28N 39°17' W 076°37'0 0.0
2017-Oct-12 07:58N 39°17' W 076°37'0 0.2
2017-Oct-12 07:28N 39°17' W 076°36'0 0.2
2017-Oct-12 06:58N 39°17' W 076°37'0 0.0
2017-Oct-12 06:28N 39°17' W 076°37'0 0.0
2017-Oct-12 05:58N 39°17' W 076°37'0 0.0
2017-Oct-12 05:28N 39°17' W 076°37'0 0.0
2017-Oct-12 04:58N 39°17' W 076°37'0 0.0
2017-Oct-12 04:28N 39°17' W 076°37'0 0.0
2017-Oct-12 03:58N 39°17' W 076°37'0 0.0
2017-Oct-12 03:28N 39°17' W 076°37'0 0.0
2017-Oct-12 02:58N 39°17' W 076°37'0 0.0
2017-Oct-12 02:28N 39°17' W 076°37'0 0.0
2017-Oct-12 01:58N 39°17' W 076°37'0 0.0
2017-Oct-12 01:25N 39°17' W 076°37'0 0.0
2017-Oct-12 00:58N 39°17' W 076°37'0 0.0
2017-Oct-12 00:28N 39°17' W 076°37'0 0.0
2017-Oct-11 23:58N 39°17' W 076°37'0 0.0
2017-Oct-11 23:28N 39°17' W 076°37'0 0.0
2017-Oct-11 22:58N 39°17' W 076°37'0 0.0
2017-Oct-11 22:28N 39°17' W 076°37'0 0.0
2017-Oct-11 21:58N 39°17' W 076°37'0 0.0
2017-Oct-11 21:28N 39°17' W 076°37'0 0.0
2017-Oct-11 20:58N 39°17' W 076°37'0 0.0
2017-Oct-11 20:28N 39°17' W 076°37'0 0.0
2017-Oct-11 19:58N 39°17' W 076°37'0 0.0
2017-Oct-11 19:28N 39°17' W 076°37'0 0.0
2017-Oct-11 18:58N 39°17' W 076°37'0 0.0
2017-Oct-11 18:28N 39°17' W 076°37'0 0.0
2017-Oct-11 17:58N 39°17' W 076°37'0 0.0
2017-Oct-11 17:28N 39°17' W 076°37'0 0.0
2017-Oct-11 16:58N 39°17' W 076°37'0 0.0
2017-Oct-10 23:58N 39°17' W 076°37'0 0.0
2017-Oct-10 23:28N 39°17' W 076°37'0 0.0
2017-Oct-10 22:58N 39°17' W 076°37'0 0.0
2017-Oct-10 22:28N 39°17' W 076°37'0 0.0
2017-Oct-10 21:58N 39°17' W 076°37'0 0.0
2017-Oct-10 21:28N 39°17' W 076°37'0 0.3
2017-Oct-10 20:58N 39°17' W 076°36'0 0.3
2017-Oct-10 20:28N 39°17' W 076°37'0 0.0
2017-Oct-10 19:58N 39°17' W 076°37'0 0.0
2017-Oct-10 19:25N 39°17' W 076°37'0 0.0
2017-Oct-10 18:58N 39°17' W 076°37'0 0.0
2017-Oct-10 18:28N 39°17' W 076°37'0 0.0
2017-Oct-10 17:58N 39°17' W 076°37'0 0.0
2017-Oct-10 17:28N 39°17' W 076°37'0 0.0
2017-Oct-10 16:58N 39°17' W 076°37'0 0.0
2017-Oct-10 16:28N 39°17' W 076°37'0 0.0
2017-Oct-10 15:58N 39°17' W 076°37'0 0.0
2017-Oct-10 15:28N 39°17' W 076°37'0 0.0
2017-Oct-10 14:58N 39°17' W 076°37'0 0.0
2017-Oct-10 13:58N 39°17' W 076°37'0 0.0
2017-Oct-10 13:28N 39°17' W 076°37'0 0.0
2017-Oct-10 12:58N 39°17' W 076°37'0 0.0
2017-Oct-10 12:28N 39°17' W 076°37'0 0.0
2017-Oct-10 11:58N 39°17' W 076°37'0 0.0
2017-Oct-10 11:28N 39°17' W 076°37'0 0.0
2017-Oct-10 10:58N 39°17' W 076°37'0 0.0
2017-Oct-10 10:28N 39°17' W 076°37'0 0.0
2017-Oct-10 09:58N 39°17' W 076°37'0 0.0
2017-Oct-10 09:28N 39°17' W 076°37'0 0.0
2017-Oct-10 08:58N 39°17' W 076°37'0 0.0
2017-Oct-10 08:28N 39°17' W 076°37'0 0.0
2017-Oct-10 07:58N 39°17' W 076°37'0 0.0
2017-Oct-10 07:28N 39°17' W 076°37'0 0.0
2017-Oct-10 06:58N 39°17' W 076°37'0 0.0
2017-Oct-10 06:28N 39°17' W 076°37'0 0.0
2017-Oct-10 05:58N 39°17' W 076°37'0 0.0
2017-Oct-10 05:28N 39°17' W 076°37'0 0.0
2017-Oct-10 04:58N 39°17' W 076°37'0 0.0
2017-Oct-10 04:28N 39°17' W 076°37'0 0.0
2017-Oct-10 03:58N 39°17' W 076°37'0 0.0
2017-Oct-10 03:28N 39°17' W 076°37'0 0.0
2017-Oct-10 02:58N 39°17' W 076°37'0 0.0
2017-Oct-10 02:28N 39°17' W 076°37'0 0.0
2017-Oct-10 01:58N 39°17' W 076°37'3608103076.3
2017-Oct-10 01:56N 41°18' E 002°11'36087758.4
2017-Oct-10 01:28N 39°17' W 076°37'0 0.0
2017-Oct-10 00:58N 39°17' W 076°37'0 0.0
2017-Oct-10 00:28N 39°17' W 076°37'0 0.0
2017-Oct-09 23:58N 39°17' W 076°37'0 0.0
2017-Oct-09 23:19N 39°17' W 076°37'36082153.2
2017-Oct-09 21:38N 41°19' E 002°12'3608197.0
2017-Oct-09 03:19N 39°17' W 076°37'0 0.0
2017-Oct-09 02:31N 39°17' W 076°37'0 0.0
2017-Oct-09 02:07N 39°17' W 076°37'0 0.0
2017-Oct-09 01:37N 39°17' W 076°37'0 0.0
2017-Oct-09 01:19N 39°17' W 076°37'0 0.0
2017-Oct-09 00:49N 39°17' W 076°37'0 0.0
2017-Oct-09 00:25N 39°17' W 076°37'0 0.0
2017-Oct-08 23:55N 39°17' W 076°37'0 0.0
2017-Oct-08 23:28N 39°17' W 076°37'0 0.0
2017-Oct-08 22:43N 39°17' W 076°37'360819893.4
2017-Oct-08 22:32N 41°18' E 002°12'360811325.6
2017-Oct-08 22:13N 39°17' W 076°37'360827463.9
2017-Oct-08 22:05N 41°18' E 002°12'0 0.0
2017-Oct-08 21:59N 41°18' E 002°12'36083521.4
2017-Oct-08 20:58N 39°17' W 076°37'360828803.5
2017-Oct-08 20:50N 41°18' E 002°12'36089954.3
2017-Oct-08 20:28N 39°17' W 076°37'0 0.0
2017-Oct-08 19:25N 39°17' W 076°37'36084618.0
2017-Oct-08 18:38N 41°18' E 002°12'360822243.8
2017-Oct-08 18:28N 39°17' W 076°37'360841108.9
2017-Oct-08 18:23N 41°18' E 002°12'0 0.0
2017-Oct-08 15:38N 41°18' E 002°12'  
Track history (hours):
 
Tides and Currents Weather Stations Pressure Air Temp Water Temp Dewpoint Dewpoint Depression Visibility Wind Speed Wind Dir Waves Ship Positions

Navig8 Saiph

Last reported at 2017-Oct-18 13:57 UTC. Time now 2017-Oct-19 01:35 UTC.
Position N 36°44' W 076°15'.

Length 153 m; draft 8.9 m.

Type: Ship (hazmat cat B). MMSI: 538006894.

Date/timePositionNaut miles runAvg speedWind from/ knotsBaromVisibWave heightAir tempDewpointWater temp
2017-Oct-18 13:57N 36°44' W 076°15'3 4.4
2017-Oct-18 13:23N 36°45' W 076°18'2 5.2
2017-Oct-18 12:59N 36°47' W 076°18'3 0.1
2017-Oct-16 22:51N 36°51' W 076°18'0 0.0
2017-Oct-16 22:27N 36°51' W 076°18'0 0.0
2017-Oct-16 20:03N 36°51' W 076°18'0 0.3
2017-Oct-16 20:00N 36°51' W 076°18'121 5.1
2017-Oct-15 20:05N 38°52' W 076°25'213.3
2017-Oct-15 19:57N 38°54' W 076°25'613.4
2017-Oct-15 19:30N 38°59' W 076°23'1412.0
2017-Oct-15 18:18N 39°12' W 076°31'311.6
2017-Oct-15 18:00N 39°15' W 076°34'3 0.3
2017-Oct-15 07:25N 39°17' W 076°37'0 0.0
2017-Oct-15 06:58N 39°17' W 076°37'0 0.0
2017-Oct-15 06:28N 39°17' W 076°37'0 0.0
2017-Oct-15 05:58N 39°17' W 076°37'0 0.0
2017-Oct-15 05:28N 39°17' W 076°37'0 0.1
2017-Oct-15 04:58N 39°17' W 076°37'0 0.1
2017-Oct-15 04:28N 39°17' W 076°37'0 0.0
2017-Oct-15 03:58N 39°17' W 076°37'0 0.0
2017-Oct-15 03:28N 39°17' W 076°37'0 0.0
2017-Oct-15 02:58N 39°17' W 076°37'0 0.0
2017-Oct-15 02:28N 39°17' W 076°37'0 0.0
2017-Oct-15 01:58N 39°17' W 076°37'0 0.0
2017-Oct-15 01:28N 39°17' W 076°37'0 0.0
2017-Oct-15 00:58N 39°17' W 076°37'0 0.0
2017-Oct-15 00:28N 39°17' W 076°37'0 0.0
2017-Oct-14 23:58N 39°17' W 076°37'0 0.0
2017-Oct-14 23:28N 39°17' W 076°37'0 0.0
2017-Oct-14 22:58N 39°17' W 076°37'0 0.0
2017-Oct-14 22:25N 39°17' W 076°37'0 0.0
2017-Oct-14 21:58N 39°17' W 076°37'0 0.0
2017-Oct-14 21:28N 39°17' W 076°37'0 0.0
2017-Oct-14 20:58N 39°17' W 076°37'0 0.0
2017-Oct-14 20:28N 39°17' W 076°37'0 0.0
2017-Oct-14 19:58N 39°17' W 076°37'0 0.0
2017-Oct-14 19:28N 39°17' W 076°37'0 0.0
2017-Oct-14 18:58N 39°17' W 076°37'0 0.0
2017-Oct-14 18:28N 39°17' W 076°37'0 0.0
2017-Oct-14 17:58N 39°17' W 076°37'0 0.0
2017-Oct-14 17:25N 39°17' W 076°37'0 0.0
2017-Oct-14 16:58N 39°17' W 076°37'0 0.0
2017-Oct-14 16:28N 39°17' W 076°37'0 0.0
2017-Oct-14 15:58N 39°17' W 076°37'0 0.0
2017-Oct-14 15:28N 39°17' W 076°37'0 0.0
2017-Oct-14 14:58N 39°17' W 076°37'0 0.0
2017-Oct-14 14:28N 39°17' W 076°37'0 0.0
2017-Oct-14 13:58N 39°17' W 076°37'0 0.0
2017-Oct-14 13:28N 39°17' W 076°37'0 0.0
2017-Oct-14 12:58N 39°17' W 076°37'0 0.0
2017-Oct-14 12:28N 39°17' W 076°37'0 0.0
2017-Oct-14 11:58N 39°17' W 076°37'0 0.0
2017-Oct-14 11:28N 39°17' W 076°37'0 0.0
2017-Oct-14 10:58N 39°17' W 076°37'0 0.0
2017-Oct-14 10:28N 39°17' W 076°37'0 0.0
2017-Oct-14 09:58N 39°17' W 076°37'0 0.0
2017-Oct-14 09:28N 39°17' W 076°37'0 0.0
2017-Oct-14 08:58N 39°17' W 076°37'0 0.0
2017-Oct-14 08:28N 39°17' W 076°37'0 0.0
2017-Oct-14 07:58N 39°17' W 076°37'0 0.0
2017-Oct-14 07:28N 39°17' W 076°37'0 0.0
2017-Oct-14 06:58N 39°17' W 076°37'0 0.0
2017-Oct-14 06:28N 39°17' W 076°37'0 0.0
2017-Oct-14 05:58N 39°17' W 076°37'0 0.0
2017-Oct-14 05:28N 39°17' W 076°37'0 0.0
2017-Oct-14 04:58N 39°17' W 076°37'0 0.0
2017-Oct-14 04:28N 39°17' W 076°37'0 0.0
2017-Oct-14 03:58N 39°17' W 076°37'0 0.0
2017-Oct-14 03:28N 39°17' W 076°37'0 0.0
2017-Oct-14 02:58N 39°17' W 076°37'0 0.0
2017-Oct-14 02:28N 39°17' W 076°37'0 0.0
2017-Oct-14 01:58N 39°17' W 076°37'0 0.0
2017-Oct-13 23:49N 39°17' W 076°37'0 0.0
2017-Oct-13 23:19N 39°17' W 076°37'0 0.0
2017-Oct-13 22:58N 39°17' W 076°37'0 0.0
2017-Oct-13 22:28N 39°17' W 076°37'0 0.0
2017-Oct-13 21:58N 39°17' W 076°37'0 0.0
2017-Oct-13 21:28N 39°17' W 076°37'0 0.0
2017-Oct-13 20:58N 39°17' W 076°37'0 0.0
2017-Oct-13 20:28N 39°17' W 076°37'0 0.0
2017-Oct-13 19:58N 39°17' W 076°37'0 0.0
2017-Oct-13 19:28N 39°17' W 076°37'0 0.0
2017-Oct-13 18:58N 39°17' W 076°37'0 0.0
2017-Oct-13 18:28N 39°17' W 076°37'0 0.0
2017-Oct-13 17:58N 39°17' W 076°37'0 0.0
2017-Oct-13 17:28N 39°17' W 076°37'0 0.0
2017-Oct-13 16:58N 39°17' W 076°37'0 0.0
2017-Oct-13 16:28N 39°17' W 076°37'0 0.0
2017-Oct-13 15:58N 39°17' W 076°37'0 0.0
2017-Oct-13 15:25N 39°17' W 076°37'0 0.0
2017-Oct-13 14:58N 39°17' W 076°37'0 0.0
2017-Oct-13 14:28N 39°17' W 076°37'0 0.0
2017-Oct-13 13:58N 39°17' W 076°37'0 0.0
2017-Oct-13 13:28N 39°17' W 076°37'0 0.0
2017-Oct-13 12:58N 39°17' W 076°37'0 0.0
2017-Oct-13 12:28N 39°17' W 076°37'0 0.0
2017-Oct-13 11:58N 39°17' W 076°37'0 0.0
2017-Oct-13 11:28N 39°17' W 076°37'0 0.0
2017-Oct-13 10:58N 39°17' W 076°37'0 0.0
2017-Oct-13 10:28N 39°17' W 076°37'0 0.0
2017-Oct-13 09:58N 39°17' W 076°37'43559695.7
2017-Oct-13 09:31N 35°57' E 014°56'012.7
2017-Oct-13 09:30N 35°57' E 014°55'4355136321.7
2017-Oct-13 09:28N 39°17' W 076°37'43499024.9
2017-Oct-13 08:59N 35°58' E 014°49'4349240894.5
2017-Oct-13 08:58N 39°17' W 076°37'43498825.8
2017-Oct-13 08:28N 35°58' E 014°49'4349602193.9
2017-Oct-13 08:28N 39°17' W 076°37'43498825.9
2017-Oct-13 07:58N 35°58' E 014°49'4349602194.6
2017-Oct-13 07:58N 39°17' W 076°37'43498830.8
2017-Oct-13 07:28N 35°58' E 014°49'4349579891.5
2017-Oct-13 07:28N 39°17' W 076°37'43498825.9
2017-Oct-13 06:58N 35°58' E 014°49'4349602195.7
2017-Oct-13 06:58N 39°17' W 076°37'43498826.0
2017-Oct-13 06:28N 35°58' E 014°49'4349579898.8
2017-Oct-13 06:28N 39°17' W 076°37'43498831.0
2017-Oct-13 05:58N 35°58' E 014°49'4349602204.7
2017-Oct-13 05:58N 39°17' W 076°37'43498831.0
2017-Oct-13 05:28N 35°58' E 014°49'4349559189.1
2017-Oct-13 05:28N 39°17' W 076°37'43498826.0
2017-Oct-13 04:58N 35°58' E 014°49'4349626295.4
2017-Oct-13 04:58N 39°17' W 076°37'43498826.0
2017-Oct-13 04:28N 35°58' E 014°49'4349602206.2
2017-Oct-13 04:28N 39°17' W 076°37'43498826.0
2017-Oct-13 03:58N 35°58' E 014°49'4349579903.1
2017-Oct-13 03:58N 39°17' W 076°37'43497340.5
2017-Oct-13 03:22N 35°58' E 014°49'0 0.0
2017-Oct-13 02:40N 35°58' E 014°49'0 0.1
2017-Oct-13 02:28N 35°58' E 014°49'0 0.0
2017-Oct-13 01:58N 35°58' E 014°49'0 0.0
2017-Oct-13 01:28N 35°58' E 014°49'434914131.2
2017-Oct-13 01:10N 39°17' W 076°37'434922658.8
2017-Oct-13 00:58N 35°58' E 014°49'4349539906.1
2017-Oct-13 00:58N 39°17' W 076°37'43498836.0
2017-Oct-13 00:28N 35°58' E 014°49'434975275.6
2017-Oct-13 00:25N 39°17' W 076°37'0 0.0
2017-Oct-12 23:58N 39°17' W 076°37'434930580.8
2017-Oct-12 23:49N 35°58' E 014°49'434912156.3
2017-Oct-12 23:28N 39°17' W 076°37'0 0.0
2017-Oct-12 22:58N 39°17' W 076°37'43499822.8
2017-Oct-12 22:31N 35°58' E 014°49'0 0.1
2017-Oct-12 22:28N 35°58' E 014°49'4349559194.4
2017-Oct-12 22:28N 39°17' W 076°37'43498831.1
2017-Oct-12 21:58N 35°58' E 014°49'4349579909.6
2017-Oct-12 21:58N 39°17' W 076°37'43498836.1
2017-Oct-12 21:28N 35°58' E 014°49'4349559198.8
2017-Oct-12 21:28N 39°17' W 076°37'43498831.1
2017-Oct-12 20:58N 35°58' E 014°49'4349579908.6
2017-Oct-12 20:58N 39°17' W 076°37'0 0.0
2017-Oct-12 20:28N 39°17' W 076°37'4349102337.0
2017-Oct-12 20:25N 35°58' E 014°49'0 0.0
2017-Oct-12 19:58N 35°58' E 014°49'4349579909.9
2017-Oct-12 19:58N 39°17' W 076°37'0 0.0
2017-Oct-12 19:28N 39°17' W 076°37'434947161.3
2017-Oct-12 19:22N 35°58' E 014°49'0 0.0
2017-Oct-12 18:58N 35°58' E 014°49'4349559198.8
2017-Oct-12 18:58N 39°17' W 076°37'0 0.0
2017-Oct-12 18:28N 39°17' W 076°37'434947161.4
2017-Oct-12 18:22N 35°58' E 014°49'0 0.0
2017-Oct-12 17:58N 35°58' E 014°49'4349521920.0
2017-Oct-12 17:58N 39°17' W 076°37'0 0.0
2017-Oct-12 17:28N 39°17' W 076°37'434947161.3
2017-Oct-12 17:22N 35°58' E 014°49'434910665.9
2017-Oct-12 16:58N 39°17' W 076°37'434922659.3
2017-Oct-12 16:46N 35°58' E 014°49'0 0.0
2017-Oct-12 16:28N 35°58' E 014°49'4349539915.3
2017-Oct-12 16:28N 39°17' W 076°37'0 0.0
2017-Oct-12 15:58N 39°17' W 076°37'4349103009.9
2017-Oct-12 15:55N 35°58' E 014°49'0 0.0
2017-Oct-12 15:28N 35°58' E 014°49'4349539915.1
2017-Oct-12 15:28N 39°17' W 076°37'0 0.0
2017-Oct-12 14:58N 39°17' W 076°37'4349102336.3
2017-Oct-12 14:55N 35°58' E 014°49'0 0.3
2017-Oct-12 14:29N 35°58' E 014°49'4349244640.2
2017-Oct-12 14:28N 39°17' W 076°37'0 0.0
2017-Oct-12 13:58N 39°17' W 076°37'434432919.8
2017-Oct-12 13:50N 36°01' E 014°44'434411801.5
2017-Oct-12 13:28N 39°17' W 076°37'43319975.9
2017-Oct-12 13:02N 36°06' E 014°32'013.7
2017-Oct-12 13:01N 36°06' E 014°31'433193923.0
2017-Oct-12 12:58N 39°17' W 076°37'43239170.5
2017-Oct-12 12:29N 36°10' E 014°24'4323152571.3
2017-Oct-12 12:28N 39°17' W 076°37'43159127.2
2017-Oct-12 11:59N 36°13' E 014°16'431555679.4
2017-Oct-12 11:55N 39°17' W 076°37'430810673.2
2017-Oct-12 11:31N 36°16' E 014°09'430893422.6
2017-Oct-12 11:28N 39°17' W 076°37'43009219.6
2017-Oct-12 11:00N 36°20' E 014°01'4300126882.9
2017-Oct-12 10:58N 39°17' W 076°37'42929246.8
2017-Oct-12 10:30N 36°22' E 013°53'4292119778.8
2017-Oct-12 10:28N 39°17' W 076°37'42849364.6
2017-Oct-12 10:00N 36°25' E 013°45'4284100807.4
2017-Oct-12 09:58N 39°17' W 076°37'0 0.0
2017-Oct-12 09:28N 39°17' W 076°37'0 0.0
2017-Oct-12 08:58N 39°17' W 076°37'0 0.0
2017-Oct-12 08:28N 39°17' W 076°37'0 0.0
2017-Oct-12 07:58N 39°17' W 076°37'0 0.2
2017-Oct-12 07:28N 39°17' W 076°36'0 0.2
2017-Oct-12 06:58N 39°17' W 076°37'0 0.0
2017-Oct-12 06:28N 39°17' W 076°37'0 0.0
2017-Oct-12 05:58N 39°17' W 076°37'0 0.0
2017-Oct-12 05:28N 39°17' W 076°37'0 0.0
2017-Oct-12 04:58N 39°17' W 076°37'0 0.0
2017-Oct-12 04:28N 39°17' W 076°37'0 0.0
2017-Oct-12 03:58N 39°17' W 076°37'0 0.0
2017-Oct-12 03:28N 39°17' W 076°37'0 0.0
2017-Oct-12 02:58N 39°17' W 076°37'0 0.0
2017-Oct-12 02:28N 39°17' W 076°37'0 0.0
2017-Oct-12 01:58N 39°17' W 076°37'0 0.0
2017-Oct-12 01:25N 39°17' W 076°37'0 0.0
2017-Oct-12 00:58N 39°17' W 076°37'0 0.0
2017-Oct-12 00:28N 39°17' W 076°37'0 0.0
2017-Oct-11 23:58N 39°17' W 076°37'0 0.0
2017-Oct-11 23:28N 39°17' W 076°37'0 0.0
2017-Oct-11 22:58N 39°17' W 076°37'0 0.0
2017-Oct-11 22:28N 39°17' W 076°37'0 0.0
2017-Oct-11 21:58N 39°17' W 076°37'0 0.0
2017-Oct-11 21:28N 39°17' W 076°37'0 0.0
2017-Oct-11 20:58N 39°17' W 076°37'0 0.0
2017-Oct-11 20:28N 39°17' W 076°37'0 0.0
2017-Oct-11 19:58N 39°17' W 076°37'0 0.0
2017-Oct-11 19:28N 39°17' W 076°37'0 0.0
2017-Oct-11 18:58N 39°17' W 076°37'0 0.0
2017-Oct-11 18:28N 39°17' W 076°37'0 0.0
2017-Oct-11 17:58N 39°17' W 076°37'0 0.0
2017-Oct-11 17:28N 39°17' W 076°37'0 0.0
2017-Oct-11 16:58N 39°17' W 076°37'0 0.0
2017-Oct-10 23:58N 39°17' W 076°37'0 0.0
2017-Oct-10 23:28N 39°17' W 076°37'0 0.0
2017-Oct-10 22:58N 39°17' W 076°37'0 0.0
2017-Oct-10 22:28N 39°17' W 076°37'0 0.0
2017-Oct-10 21:58N 39°17' W 076°37'0 0.0
2017-Oct-10 21:28N 39°17' W 076°37'0 0.3
2017-Oct-10 20:58N 39°17' W 076°36'0 0.3
2017-Oct-10 20:28N 39°17' W 076°37'0 0.0
2017-Oct-10 19:58N 39°17' W 076°37'0 0.0
2017-Oct-10 19:25N 39°17' W 076°37'0 0.0
2017-Oct-10 18:58N 39°17' W 076°37'0 0.0
2017-Oct-10 18:28N 39°17' W 076°37'0 0.0
2017-Oct-10 17:58N 39°17' W 076°37'0 0.0
2017-Oct-10 17:28N 39°17' W 076°37'0 0.0
2017-Oct-10 16:58N 39°17' W 076°37'0 0.0
2017-Oct-10 16:28N 39°17' W 076°37'0 0.0
2017-Oct-10 15:58N 39°17' W 076°37'0 0.0
2017-Oct-10 15:28N 39°17' W 076°37'0 0.0
2017-Oct-10 14:58N 39°17' W 076°37'0 0.0
2017-Oct-10 13:58N 39°17' W 076°37'0 0.0
2017-Oct-10 13:28N 39°17' W 076°37'0 0.0
2017-Oct-10 12:58N 39°17' W 076°37'0 0.0
2017-Oct-10 12:28N 39°17' W 076°37'0 0.0
2017-Oct-10 11:58N 39°17' W 076°37'0 0.0
2017-Oct-10 11:28N 39°17' W 076°37'0 0.0
2017-Oct-10 10:58N 39°17' W 076°37'0 0.0
2017-Oct-10 10:28N 39°17' W 076°37'0 0.0
2017-Oct-10 09:58N 39°17' W 076°37'0 0.0
2017-Oct-10 09:28N 39°17' W 076°37'0 0.0
2017-Oct-10 08:58N 39°17' W 076°37'0 0.0
2017-Oct-10 08:28N 39°17' W 076°37'0 0.0
2017-Oct-10 07:58N 39°17' W 076°37'0 0.0
2017-Oct-10 07:28N 39°17' W 076°37'0 0.0
2017-Oct-10 06:58N 39°17' W 076°37'0 0.0
2017-Oct-10 06:28N 39°17' W 076°37'0 0.0
2017-Oct-10 05:58N 39°17' W 076°37'0 0.0
2017-Oct-10 05:28N 39°17' W 076°37'0 0.0
2017-Oct-10 04:58N 39°17' W 076°37'0 0.0
2017-Oct-10 04:28N 39°17' W 076°37'0 0.0
2017-Oct-10 03:58N 39°17' W 076°37'0 0.0
2017-Oct-10 03:28N 39°17' W 076°37'0 0.0
2017-Oct-10 02:58N 39°17' W 076°37'0 0.0
2017-Oct-10 02:28N 39°17' W 076°37'0 0.0
2017-Oct-10 01:58N 39°17' W 076°37'3608103076.3
2017-Oct-10 01:56N 41°18' E 002°11'36087758.4
2017-Oct-10 01:28N 39°17' W 076°37'0 0.0
2017-Oct-10 00:58N 39°17' W 076°37'0 0.0
2017-Oct-10 00:28N 39°17' W 076°37'0 0.0
2017-Oct-09 23:58N 39°17' W 076°37'0 0.0
2017-Oct-09 23:19N 39°17' W 076°37'36082153.2
2017-Oct-09 21:38N 41°19' E 002°12'3608197.0
2017-Oct-09 03:19N 39°17' W 076°37'0 0.0
2017-Oct-09 02:31N 39°17' W 076°37'0 0.0
2017-Oct-09 02:07N 39°17' W 076°37'0 0.0
2017-Oct-09 01:37N 39°17' W 076°37'0 0.0
2017-Oct-09 01:19N 39°17' W 076°37'0 0.0
2017-Oct-09 00:49N 39°17' W 076°37'0 0.0
2017-Oct-09 00:25N 39°17' W 076°37'0 0.0
2017-Oct-08 23:55N 39°17' W 076°37'0 0.0
2017-Oct-08 23:28N 39°17' W 076°37'0 0.0
2017-Oct-08 22:43N 39°17' W 076°37'360819893.4
2017-Oct-08 22:32N 41°18' E 002°12'360811325.6
2017-Oct-08 22:13N 39°17' W 076°37'360827463.9
2017-Oct-08 22:05N 41°18' E 002°12'0 0.0
2017-Oct-08 21:59N 41°18' E 002°12'36083521.4
2017-Oct-08 20:58N 39°17' W 076°37'360828803.5
2017-Oct-08 20:50N 41°18' E 002°12'36089954.3
2017-Oct-08 20:28N 39°17' W 076°37'0 0.0
2017-Oct-08 19:25N 39°17' W 076°37'36084618.0
2017-Oct-08 18:38N 41°18' E 002°12'360822243.8
2017-Oct-08 18:28N 39°17' W 076°37'360841108.9
2017-Oct-08 18:23N 41°18' E 002°12'0 0.0
2017-Oct-08 15:38N 41°18' E 002°12'  

Dump ship's entire track history